Location: Albany
(35.0000°S, 118.0000°E)
Time: 09:31:31
(UTC-04:00)

Vanguard 3 - Visible Passes

Search period start: 06 July 2015 00:00
Search period end: 16 July 2015 00:00
Orbit: 509 x 3270 km, 33.3° (Epoch: 05 July)

Date Brightness Start Highest point End Pass type
(mag) Time Alt. Az. Time Alt. Az. Time Alt. Az.
06 Jul 11.0 14:33:43 19° N 14:41:43 27° NE 14:56:59 10° E visible
06 Jul 10.4 16:38:48 10° NW 16:57:19 58° NNE 17:14:52 10° E visible
07 Jul 11.3 13:26:14 14° NE 13:26:59 15° NE 13:36:38 10° ENE visible
07 Jul 10.6 15:31:00 25° NNW 15:41:34 44° NE 15:59:24 10° E visible
07 Jul 10.2 17:38:17 10° WNW 17:58:07 74° NNE 18:15:03 10° E visible
08 Jul 10.8 14:23:12 29° NNE 14:26:23 30° NE 14:42:34 10° E visible
08 Jul 10.3 16:27:55 22° NW 16:41:55 62° NNE 17:00:17 10° E visible
08 Jul 10.1 18:38:49 10° WNW 18:59:12 83° N 19:14:53 10° E visible
09 Jul 11.2 13:15:09 17° ENE 13:15:09 17° ENE 13:23:10 10° E visible
09 Jul 10.4 15:19:52 39° N 15:26:07 49° NNE 15:44:41 10° E visible
09 Jul 10.2 17:24:35 14° WNW 17:42:49 77° NNE 18:00:34 10° E visible
10 Jul 10.6 14:11:36 34° NE 14:11:36 34° NE 14:27:52 10° E visible
10 Jul 10.2 16:16:19 35° NW 16:26:29 67° NNE 16:45:34 10° E visible
10 Jul 10.2 18:23:45 10° W 18:44:02 85° N 19:00:34 10° E visible
11 Jul 11.2 13:03:11 17° ENE 13:03:11 17° ENE 13:09:02 10° E visible
11 Jul 10.1 15:07:52 50° N 15:10:40 53° NNE 15:29:46 10° ESE visible
11 Jul 10.1 17:12:34 23° WNW 17:27:29 80° NNE 17:45:59 10° E visible
12 Jul 10.6 13:59:18 36° ENE 13:59:18 36° ENE 14:12:57 10° E visible
12 Jul 10.0 16:03:58 47° NW 16:11:04 71° NNE 16:30:43 10° E visible
12 Jul 10.2 18:08:47 10° W 18:28:48 85° N 18:46:08 10° E visible
13 Jul 11.3 12:50:37 16° E 12:50:37 16° E 12:54:31 10° E visible
13 Jul 10.0 14:55:16 57° NNE 14:55:16 57° NNE 15:14:43 10° ESE visible
13 Jul 10.1 16:59:56 31° WNW 17:12:08 82° N 17:31:18 10° E visible
14 Jul 10.7 13:46:28 34° ENE 13:46:28 34° ENE 13:57:50 10° E visible
14 Jul 9.8 15:51:07 59° NW 15:55:42 74° NNE 16:15:45 10° E visible
14 Jul 10.1 17:55:46 15° W 18:13:31 85° N 18:31:35 10° E visible
15 Jul 11.3 12:37:36 13° E 12:37:36 13° E 12:39:42 10° E visible
15 Jul 10.0 14:42:14 59° NE 14:42:14 59° NE 14:59:31 10° ESE visible
15 Jul 10.0 16:46:53 39° WNW 16:56:48 84° N 17:16:29 10° E visible
